Location: Unspecified
(0.0000°N, 0.0000°E)
Time: 14:11:35
(UTC+00:00)

Vanguard 3 - Pass Details

Date: 13 December 2025
Orbit: 507 x 3207 km, 33.3° (Epoch: 22 January)

Event Time Altitude Azimuth Distance (km) Brightness Sun altitude
Rises 19:05:26 0° 337° (NNW) 2,582 9.7 -16.3°
Enters shadow 19:07:54 - 359° (N) 1,853 8.8 -16.8°
Reaches altitude 10° 19:08:21 10° 5° (N) 1,762 - -16.9°
Maximum altitude 19:10:29 14° 39° (NE) 1,616 - -17.4°
Drops below altitude 10° 19:12:53 10° 73° (ENE) 2,038 - -18.0°
Sets 19:16:45 0° 97° (E) 3,331 - -18.8°
